Weather in Savyntsi

Ukraine / Kharkiv Region     49°24′32″N   37°03′07″E
temp.,
°C
wind,
m/s
gust,
m/s
humid.,
%
clouds,
%
prec.,
mm/h
press.,
hPa
HPBL,
m
21 june, mon
mon2100:00+20ene7176992 0.0 1014369
03:00+20e6146312 0.0 1014306
06:00+19e613729 0.0 1015253
09:00+24ese614605 0.0 1015597
12:00+27ese710470 0.0 1015918
15:00+28e710510 0.0 10151093
18:00+27e612570 0.0 1015594
21:00+21ene410750 0.0 1015157
22 june, tue
tue2200:00+21e615580 0.0 1015261
03:00+19e5126286 0.0 1015213
06:00+18e51271100 0.0 1015212
09:00+24ese61358100 0.0 1016507
12:00+28ese710442 0.0 1016849
15:00+30e610475 0.0 10161364
18:00+29e510586 0.0 1015389
21:00+24ne5128161 0.0 1015183
23 june, wed
wed2300:00+24ene7176198 0.0 1015412
03:00+22ene5116931 0.0 1015190
06:00+21ene61176100 0.0 1015191
09:00+25e5765100 0.0 1016294
12:00+28e4653100 0.0 1016420
15:00+28ene695682 0.0 1016503
18:00+26ene486695 0.0 1016242
21:00+23ne411757 0.0 1016203
24 june, thu
thu2400:00+22ne5128054 0.0 1016218
03:00+23ene51267100 0.0 1015263
06:00+21ene4107692 0.0 1016208
09:00+26ese51159100 0.0 1016418
12:00+28ese41158100 0.0 1017671
15:00+30e5847100 0.0 10161246
18:00+28e236289 0.0 101645
21:00+24e227691 0.0 101626
25 june, fri
fri2500:00+22ene458817 0.0 101572
03:00+21ne368778 0.0 101595
06:00+22ene4118297 0.0 1015230
09:00+26ne4874100 0.0 1015360
12:00+30e6854100 0.0 10141015
15:00+31e565297 0.0 10141262
18:00+28ene5965100 0.0 1014387
21:00+25e4871100 0.0 1013128